Weather History for Poughkeepsie, NY

Change the Weather History Date:

Sunday, October 28, 2012

  Actual Average Record
Temperature  
Mean Temperature 56 °F 47 °F  
Max Temperature 59 °F 59 °F 78 °F (1971)
Min Temperature 52 °F 35 °F 19 °F (1976)
Degree Days  
Heating Degree Days 9 18  
Month to date heating degree days 282 382  
Since 1 July heating degree days 382 522  
Cooling Degree Days 0 0  
Month to date cooling degree days 6 0  
Year to date cooling degree days 895 668  
Growing Degree Days 6 (Base 50)    
Moisture  
Dew Point 46 °F    
Average Humidity 74    
Maximum Humidity 93    
Minimum Humidity 55    
Precipitation  
Precipitation 0.00 in 0.13 in 1.20 in (2008)
Month to date precipitation 3.50 4.07  
Year to date precipitation 31.28 39.13  
Sea Level Pressure  
Sea Level Pressure 29.84 in    
Wind  
Wind Speed 8 mph (NNE)    
Max Wind Speed 20 mph    
Max Gust Speed 26 mph    
Visibility 10 miles    
Events      
T = Trace of Precipitation, MM = Missing Value Source: NWS Daily Summary

Daily Weather History Graph

Daily Weather History Graph

Search for Another Location

Airport:

Trip Planner

Search our weather history database for the weather conditions in past years. The results will help you decide how hot, cold, wet, or windy it might be!

Date:

Astronomy

Oct. 28, 2012 Rise Set
Actual Time 7:23 AM EDT 5:54 PM EDT
Civil Twilight 6:54 AM EDT 6:23 PM EDT
Nautical Twilight 6:21 AM EDT 6:55 PM EDT
Astronomical Twilight 5:49 AM EDT 7:28 PM EDT
Moon 5:11 PM EDT (10/28) 6:13 AM EDT (10/28)
Length of Visible Light 11h 28m
Length of Day
10h 31m
Waxing Gibbous, 99% of the Moon is Illuminated
Oct 28
Waxing Gibbous
Oct 29
Full
Nov 6
Last Quarter
Nov 13
New
Nov 20
First Quarter

Hourly Weather History & Observations

Time (EDT) Temp. Dew Point Humidity Pressure Visibility Wind Dir Wind Speed Gust Speed Precip Events Conditions
12:53 AM 54.0 °F 51.1 °F 90% 29.93 in 8.0 mi Calm Calm - N/A   Clear
1:53 AM 55.0 °F 51.1 °F 86% 29.92 in 10.0 mi Calm Calm - N/A   Clear
2:53 AM 55.0 °F 51.1 °F 86% 29.91 in 9.0 mi Calm Calm - N/A   Mostly Cloudy
3:53 AM 55.9 °F 51.1 °F 84% 29.90 in 9.0 mi North 4.6 mph - N/A   Overcast
4:53 AM 55.0 °F 51.1 °F 86% 29.90 in 10.0 mi NNE 3.5 mph - N/A   Overcast
5:53 AM 55.0 °F 50.0 °F 83% 29.91 in 10.0 mi Calm Calm - N/A   Clear
6:53 AM 55.0 °F 48.9 °F 80% 29.91 in 10.0 mi NNW 3.5 mph - N/A   Clear
7:53 AM 54.0 °F 43.0 °F 66% 29.91 in 10.0 mi North 5.8 mph - N/A   Clear
8:53 AM 54.0 °F 39.9 °F 59% 29.92 in 10.0 mi North 5.8 mph - N/A   Clear
9:53 AM 55.0 °F 39.9 °F 57% 29.92 in 10.0 mi NE 5.8 mph - N/A   Clear
10:53 AM 57.0 °F 44.1 °F 62% 29.91 in 10.0 mi NE 8.1 mph 18.4 mph N/A   Overcast
11:53 AM 57.9 °F 46.0 °F 65% 29.89 in 10.0 mi NE 13.8 mph 19.6 mph N/A   Overcast
12:53 PM 57.9 °F 46.0 °F 65% 29.87 in 10.0 mi NE 12.7 mph - N/A   Overcast
1:18 PM 57.2 °F 46.4 °F 67% 29.86 in 10.0 mi NNE 16.1 mph - N/A   Overcast
1:53 PM 59.0 °F 46.0 °F 62% 29.83 in 10.0 mi NE 11.5 mph 21.9 mph N/A   Overcast
2:53 PM 57.9 °F 46.0 °F 65% 29.79 in 10.0 mi NE 11.5 mph 21.9 mph N/A   Overcast
3:10 PM 57.2 °F 46.4 °F 67% 29.80 in 10.0 mi NE 13.8 mph - N/A   Overcast
3:53 PM 57.0 °F 46.9 °F 69% 29.80 in 10.0 mi NE 10.4 mph - N/A   Overcast
4:51 PM 57.2 °F 46.4 °F 67% 29.81 in 10.0 mi NE 10.4 mph - N/A   Overcast
4:53 PM 57.0 °F 46.9 °F 69% 29.80 in 10.0 mi NNE 10.4 mph - N/A   Overcast
5:53 PM 57.0 °F 46.0 °F 67% 29.80 in 10.0 mi NE 9.2 mph - N/A   Overcast
6:15 PM 57.2 °F 46.4 °F 67% 29.81 in 10.0 mi NE 11.5 mph 18.4 mph N/A   Overcast
6:53 PM 57.0 °F 46.9 °F 69% 29.80 in 10.0 mi North 8.1 mph - N/A   Overcast
7:53 PM 57.0 °F 46.0 °F 67% 29.79 in 10.0 mi NE 9.2 mph 16.1 mph N/A   Overcast
8:03 PM 57.2 °F 46.4 °F 67% 29.79 in 10.0 mi NNE 10.4 mph - N/A   Overcast
8:13 PM 57.2 °F 46.4 °F 67% 29.79 in 10.0 mi NE 13.8 mph 19.6 mph N/A   Overcast
8:53 PM 55.9 °F 46.0 °F 69% 29.77 in 10.0 mi NNE 15.0 mph 23.0 mph N/A   Overcast
9:11 PM 55.4 °F 44.6 °F 67% 29.77 in 10.0 mi NE 12.7 mph 20.7 mph N/A   Overcast
9:53 PM 55.9 °F 45.0 °F 67% 29.75 in 10.0 mi NE 12.7 mph - N/A   Overcast
10:53 PM 55.9 °F 43.0 °F 62% 29.74 in 10.0 mi NNE 12.7 mph 24.2 mph N/A   Overcast
11:53 PM 55.0 °F 43.0 °F 64% 29.71 in 10.0 mi NNE 10.4 mph - N/A   Overcast